Погода Сасово

Погода Сасово : погода сейчас, прогноз погоды и архив. Всё, что Вы хотите узнать о погоде Сасово!

Хотите узнать прогноз погоды Сасово? Тогда Вам сюда: Погода Сасово

Поиск расширенной информации на нашем сайте:

Полезная информация: Изготовление и производство картонной упаковки ppk-m.ru/product/5.

Другие новости

Новости СМИ2

Главная страница сайта

Новости сайта

02.10.2013

Напоминаем, что на нашем новом сайте вы можете получить высокодетализированные прогнозы погоды по пунктам России, СНГ и мира (включающие важные для авиации метеовеличины, такие как направление и скорость ветра, видимость, явления погоды, количество и форма облачности, нижняя и верхняя граница облачности), а также ознакомиться с разнообразными материалами по авиационной метеорологии и подборкой полезных ссылок на эту тему.

Сайт Метеоцентр.Азия посвящён разработке технологий оптимизации авиаметеорологического обслуживания, включая проектирование и перспективное создание нескольких автоматизированных авиаметеорологических систем:
- система выпуска высокодетальных прогностических карт явлений погоды для нижнего воздушного пространства по России и ближнему зарубежью;
- система верификации прогнозов TAF (выпускаемых синоптиками официальных АМСГ РФ и ближнего зарубежья) и AUTOTAF (выпускаемых сайтом Метеоцентр.Азия) - выявление ошибок, онлайн-сопоставление с фактической погодой METAR, автоматическое внесение коррективов в прогнозы при резком отклонении фактической погоды от прогноза, подсчёт оправдываемости прогнозов по элементам и в целом;
- система обработки, анализа и отображения авиаметеорологической информации для применения провайдерами метеорологической информации.

Рекомендуем: Научно технические и инжиниринговые услуги.

Погода Сасово - сегодня

Время (UTC), дата Ветер
(°,м/с) 
Видим.   Явления Облачность Т
(°С)
Тd
(°С)
f(%) Тe
(°С)
Pmin
(гПа)
dP
(гПа)
Po
(мм)
O2
(г/м3)
Тmin Tmax R s Состояние
почвы
18 24.06.17 310 (СЗ) 20000 м    6/4 1000 м средняя, верхняя 
[Sc|Ac trans|Ci fib]
+14.4 +7.6 64 +16  1006.4  745  284           
21 24.06.17 тихо ()   10 км    5/0 средняя, верхняя 
[Ac trans|Ci fib]
+8.4 +7 91 +8  1007.3  0.6  745  290           
00 25.06.17 180 (Ю) 2500 м  дымка  3/0 верхняя 
[Ci fib]
+7.1 +6.7 97 +8  1008.1  0.7  746  292           
03 25.06.17 190 (Ю) 20000 м    6/0 средняя, верхняя 
[Ac trans|Ci fib]
+8.2 +7.4 95 +9  1008.5  0.4  746  291  +6.4        сухая 
06 25.06.17 240 (ЮЗ) 20000 м    3/0 верхняя 
[Ci fib]
+19.3 +8.5 50 +21  1007.7  -0.2  746  279           
09 25.06.17 250 (З) 20000 м    8/5 1440 м средняя 
[Cu hum|Ac trans]
+21.4 +7.5 41 +21  1007.8  0.2  746  277           
12 25.06.17 240 (ЮЗ) 20000 м    8/4 1200 м средняя 
[Cu hum|Ac trans]
+21.8 +7 38 +22  1007.7  0.1  746  277           
15 25.06.17 210 (ЮЗ) 20000 м    10/3 1000 м средняя 
[Cu hum|Ac und]
+21 +8.9 46 +21  1007.5  -0.2  746  277    +22.6       
18 25.06.17 190 (Ю) 20000 м    8/3 1000 м средняя 
[Sc|Ac trans]
+17.3 +10.9 66 +21  1008.3  0.6  746  281           
21 25.06.17 190 (Ю) 10 км    8/0 верхняя 
[Ci fib]
+13.2 +10.6 84 +16  1008.8  0.3  746  285           
00 26.06.17 180 (Ю) 10 км    5/0 средняя, верхняя 
[Ac trans|Ci fib]
+12.2 +11.5 95 +15  1008.8  746  286           
03 26.06.17 180 (Ю) 20000 м    8/3 1110 м средняя, верхняя 
[Sc|Ac trans|Ci fib]
+16 +14.3 90 +24  1008.2  -0.4  746  281  +12.1        сухая 
06 26.06.17 210 (ЮЗ) 20000 м    4/3 600 м средняя 
[Cu hum|Ac trans]
+21.1 +15 68 +30  1008.1  0.2  746  276           
09 26.06.17 260 (З) 20000 м    8/8 1000 м 
[Cu hum]
+24 +12 47 +28  1008.1  746  274           
12 26.06.17 220 (ЮЗ) 20000 м    6/3 1000 м верхняя 
[Cu hum|Ci fib]
+25.7 +10.9 39 +28  1007.8  -0.2  746  273           
15 26.06.17 200 (Ю) 20000 м    10/3 1380 м верхняя 
[Cu hum|Ci fib]
+25.1 +13.6 49 +32  1006.3  -1.5  745  272    +26.7       
18 26.06.17 180 (Ю) 20000 м  в посл. час ливневой дождь  10/8 900 м кучево-дожд., средняя 
[Cb cap|Ac und]
+21.2 +16 72 +32  1005.3  -1.1  744  275           
21 26.06.17 170 (Ю) 10 км  в посл. час гроза{ливн. осадки}  10/8 900 м кучево-дожд., средняя 
[Cb cap|Ac und]
+17.2 +16.6 96 +30  1005.1  -0.4  744  278           
00 27.06.17 190 (Ю) 10 км  {гроза}  10/4 1000 м кучево-дожд., средняя 
[Cb cap|Ac und]
+17.2 +16.3 94 +29  1004.5  -0.6  743  278           
03 27.06.17 210 (ЮЗ) 20000 м    10/8 500 м кучево-дожд., средняя 
[Cb cap|Ac und]
+18.3 +17.3 94 +33  1005.1  0.7  744  277  +17.1      влажная 
06 27.06.17 290 (З) 20000 м    10/6 630 м кучево-дожд., средняя 
[Cb cap|Ac und]
+21.1 +14.4 66 +29  1006.2  1.1  745  276           
09 27.06.17 240 (ЮЗ) 20000 м  слаб. ливневой дождь  10/5 1000 м кучево-дожд., средняя, верхняя 
[Cb cap|Ac und|Ci fib]
+20.4 +11.7 57 +24  1007.8  1.6  746  277           
12 27.06.17 280 (З) 20000 м  {ливн. осадки}  5/3 1000 м средняя 
[Cu hum|Ac trans]
+22.7 +10.3 45 +24  1007.9  0.2  746  276           
15 27.06.17 280 (З) 20000 м    5/3 1000 м средняя 
[Cu hum|Ac trans]
+22.6 +11.3 49 +26  1007.5  -0.4  746  275    +22.9       
18 27.06.17 тихо ()   40000 м    4/3 1000 м средняя 
[Sc diur, vesp|Ac trans]
+18.2 +12.3 68 +23  1009  1.3  747  280           
Время (UTC), дата Ветер
(°,м/с) 
Видим.   Явления Облачность Т
(°С)
Тd
(°С)
f(%) Тe
(°С)
Pmin
(гПа)
dP
(гПа)
Po
(мм)
O2
(г/м3)
Тmin Tmax R s Состояние
почвы

Для получения пояснительной информации подведите курсор к названию столбца.

ПОГОДА Сасово - архив

Всё, что Вы хотите узнать о погоде Сасово - удобно и подробно!

Выберите нужную дату (начиная с 1 января 2015* года) и нажмите кнопку "Найти".
Будут отображены архивные сводки погоды по пункту Сасово, начиная с указанной даты.


Отображать данные в формате CSV (для использования в таблицах Excel)


Внимание! Наш архив погоды предназначен исключительно для личного некоммерческого использования в познавательных целях. Если Вам необходимы официальные справки о состоянии погоды (для производственных, юридических, коммерческих и т.п. целей), обращайтесь в органы Росгидромета.

*Примечание: данная дата относится к архиву по метеостанциям СССР (Россия, СНГ, Балтия).
Архив по метеостанциям Зарубежной Европы и Азии (кроме Китая) хранится 10 дней, по другим регионам земного шара (Китай, Африка, Америка, Австралия, Океания) - 1 день.

Сасово - район местоположения метеостанции


Название, широта, долгота, высота метеостанции:
Сасово 54.3°ш. 41.1°д. 115 м над ур. моря [Российская Федерация]

Дополнительная информация

В oтличие oт бoльшинства пoгoдных сайтoв мы публикуем пoдрoбную метеoинфoрмацию в детальнoм прoфессиoнальнoм фoрмате.

Характеристики температуры и влажнoсти вoздуха измеряются на высoте 2 м в тени вдали oт зданий и деревьев.
Скoрoсть ветра измеряется на высoте 10 м (на урoвне рoста челoвека скoрoсть ветра ниже в 1.5-2 раза). Если метеoстанция нахoдится в гoрoде или в лесу, тo скoрoсть ветра занижена на 2-4 м/с пo сравнению с oткрытым местoм. Скoрoсть ветра над акватoриями крупных рек и oзёр, а также на вершинах хoлмoв на 2-5 м/с выше, чем в oбычных услoвиях.
Атмoсфернoе давление в разных тoчках местнoсти мoжет значительнo oтличаться oт давления на метеoстанции, в зависимoсти oт услoвий рельефа (при пoдъёме на 10 м давление пoнижается примернo на 1 мм рт.ст.).